Regional Weather Roundup
Issued by NWS

Home | Current Version | Previous Version | Graphics & Text | Print | Product List | Glossary On
Versions: 1 2 3 4 5 6 7 8 9 10 11 12 13 14 15 16 17 18 19 20 21 22 23 24 25 26 27 28 29 30 31 32 33 34 35 36 37 38 39 40 41 42 43 44 45 46 47 48 49 50
000
ASUS43 KFSD 162210
RWRSD

WEATHER ROUNDUP FOR SOUTH DAKOTA
NATIONAL WEATHER SERVICE SIOUX FALLS SD
500 PM CDT TUE SEP 16 2014

NOTE: "FAIR" INDICATES FEW OR NO CLOUDS BELOW 12,000 FEET WITH NO
SIGNIFICANT WEATHER AND/OR OBSTRUCTIONS TO VISIBILITY.


SDZ001>005-009-010-012>017-162300-
NORTHWEST AND NORTH CENTRAL SOUTH DAKOTA

CITY           SKY/WX    TMP DP  RH WIND       PRES   REMARKS
BUFFALO          N/A     79  46  31 N6        29.89S
FAITH            N/A     78  47  33 CALM      29.93F
MOBRIDGE       SUNNY     74  50  42 S6        29.90F
$$

SDZ012>016-024>037-041>051-057-063-072>074-162300-
SOUTHWEST AND SOUTH CENTRAL SOUTH DAKOTA

CITY           SKY/WX    TMP DP  RH WIND       PRES   REMARKS
RAPID CTY ARPT SUNNY     80  44  27 CALM      29.96F
PIERRE         SUNNY     77  52  41 CALM      29.90F
CUSTER         SUNNY     78  29  16 NW15      30.09F
ELLSWORTH AFB  SUNNY     80  45  28 SE3       29.96F
PHILIP         SUNNY     80  49  33 E3        29.92F
PINE RIDGE     SUNNY     81  46  29 CALM      29.98F
WINNER         FAIR      80  55  42 CALM      29.93F
$$

SDZ004>011-016>023-039-040-162300-
NORTHEAST SOUTH DAKOTA

CITY           SKY/WX    TMP DP  RH WIND       PRES   REMARKS
ABERDEEN       SUNNY     70  52  52 S6        29.93F
WATERTOWN      MOSUNNY   68  51  54 S14       29.97F
SISSETON         N/A     70  49  47 S9        29.94F
$$

SDZ017-020-022-023-036>040-048>070-162300-
SOUTHEAST SOUTH DAKOTA

CITY           SKY/WX    TMP DP  RH WIND       PRES   REMARKS
SIOUX FALLS    PTSUNNY   66  49  54 S15G23    30.00F
HURON          SUNNY     74  53  48 S14       29.93F
CHAMBERLAIN    SUNNY     76  57  51 S6        29.92F
MITCHELL       PTSUNNY   73  55  53 S13G20    29.95F
YANKTON        SUNNY     70  52  52 S17       29.99F
$$

ABBREVIATIONS USED IN REMARKS
   TC - TEMPERATURE IN CELSIUS
  WCI - WIND CHILL INDEX
   HX - HEAT INDEX
  VSB - VISIBILITY




USA.gov is the U.S. government's official web portal to all federal, state and local government web resources and services.